Edinburgh Airport, United Kingdom

1:26 AM BST on April 24, 2017 (GMT +0100)
Edinburgh Airport

Weather History for EGPH - July, 2014

Change the Weather History Date:

Friday, July 18, 2014

  Actual Average Record
Temperature  
Mean Temperature 62 °F -  
Max Temperature 68 °F 65 °F 82 °F (2013)
Min Temperature 55 °F 50 °F 44 °F (2000)
Degree Days  
Heating Degree Days 4    
Growing Degree Days 12 (Base 50)    
Moisture  
Dew Point 57 °F    
Average Humidity 88    
Maximum Humidity 100    
Minimum Humidity 68    
Precipitation  
Precipitation 0.00 in 0.08 in - ()
Sea Level Pressure  
Sea Level Pressure 30.04 in    
Wind  
Wind Speed 11 mph ()    
Max Wind Speed 22 mph    
Max Gust Speed 29 mph    
Visibility 5.9 miles    
Events Rain    
Averages and records for this station are not official NWS values.
T = Trace of Precipitation, MM = Missing Value Source: Averaged Metar Reports

Daily Weather History Graph

Daily Weather History Graph

Search for Another Location

Airport or City:

Trip Planner

Search our weather history database for the weather conditions in past years. The results will help you decide how hot, cold, wet, or windy it might be!

Date:

Astronomy

Jul. 18, 2014 Rise Set
Actual Time 4:52 AM BST 9:45 PM BST
Civil Twilight 3:58 AM BST 10:39 PM BST
Nautical Twilight 2:17 AM BST 12:16 AM BST
Astronomical Twilight Sun does not set Sun does not set
Moon No Moon Rise 1:21 PM BST (7/18)
Length of Visible Light 18h 41m
Length of Day
16h 52m
Waning Gibbous, 57% of the Moon is Illuminated
Jul 18
Waning Gibbous
Jul 19
Last Quarter
Jul 26
New
Aug 4
First Quarter
Aug 10
Full

Hourly Weather History & Observations

Time (BST) Temp. Dew Point Humidity Pressure Visibility Wind Dir Wind Speed Gust Speed Precip Events Conditions
12:20 AM 57.2 °F 55.4 °F 94% 30.15 in - NE 8.1 mph - N/A   Clear
12:50 AM 57.2 °F 55.4 °F 94% 30.12 in - NE 10.4 mph - N/A   Clear
1:20 AM 57.2 °F 55.4 °F 94% 30.12 in 5.6 mi ENE 10.4 mph - N/A   Unknown
1:50 AM 55.4 °F 55.4 °F 100% 30.12 in - ENE 9.2 mph - N/A   Clear
2:20 AM 57.2 °F 55.4 °F 94% 30.12 in 4.3 mi NE 9.2 mph - N/A   Unknown
2:50 AM 55.4 °F 55.4 °F 100% 30.12 in 3.7 mi NE 8.1 mph - N/A   Partly Cloudy
3:20 AM 57.2 °F 55.4 °F 94% 30.12 in 3.7 mi NE 10.4 mph - N/A   Partly Cloudy
3:50 AM 57.2 °F 55.4 °F 94% 30.12 in 3.7 mi NE 9.2 mph - N/A   Unknown
4:20 AM 57.2 °F 55.4 °F 94% 30.09 in 4.3 mi NE 8.1 mph - N/A   Partly Cloudy
4:50 AM 57.2 °F 55.4 °F 94% 30.09 in 6.2 mi ENE 6.9 mph - N/A   Scattered Clouds
5:20 AM 55.4 °F 55.4 °F 100% 30.09 in 6.2 mi NE 6.9 mph - N/A   Mostly Cloudy
5:50 AM 57.2 °F 57.2 °F 100% 30.09 in 6.2 mi ENE 5.8 mph - N/A   Mostly Cloudy
6:20 AM 57.2 °F 57.2 °F 100% 30.09 in 6.2 mi ENE 6.9 mph - N/A   Scattered Clouds
6:50 AM 57.2 °F 57.2 °F 100% 30.09 in 5.0 mi NE 8.1 mph - N/A   Partly Cloudy
7:20 AM 59.0 °F 57.2 °F 94% 30.09 in 6.2 mi NE 8.1 mph - N/A   Partly Cloudy
7:50 AM 59.0 °F 57.2 °F 94% 30.09 in 6.2 mi ENE 6.9 mph - N/A   Partly Cloudy
8:20 AM 60.8 °F 59.0 °F 94% 30.09 in 6.2 mi NE 10.4 mph - N/A   Partly Cloudy
8:50 AM 60.8 °F 59.0 °F 94% 30.09 in 6.2 mi NE 10.4 mph - N/A   Mostly Cloudy
9:20 AM 62.6 °F 59.0 °F 88% 30.09 in 6.2 mi NE 11.5 mph - N/A   Scattered Clouds
9:50 AM 64.4 °F 57.2 °F 77% 30.06 in 6.2 mi NE 12.7 mph - N/A   Scattered Clouds
10:20 AM 64.4 °F 57.2 °F 77% 30.06 in 6.2 mi NE 15.0 mph - N/A   Scattered Clouds
10:50 AM 64.4 °F 59.0 °F 83% 30.06 in 6.2 mi ENE 17.3 mph - N/A   Partly Cloudy
11:20 AM 64.4 °F 57.2 °F 77% 30.06 in 6.2 mi ENE 18.4 mph - N/A   Scattered Clouds
11:50 AM 62.6 °F 57.2 °F 82% 30.06 in 6.2 mi NE 16.1 mph - N/A   Scattered Clouds
12:20 PM 62.6 °F 57.2 °F 82% 30.04 in 6.2 mi NE 12.7 mph - N/A   Scattered Clouds
12:50 PM 68.0 °F 59.0 °F 73% 30.04 in 6.2 mi NE 16.1 mph - N/A   Partly Cloudy
1:20 PM 64.4 °F 57.2 °F 77% 30.04 in 6.2 mi NE 17.3 mph 28.8 mph N/A   Partly Cloudy
1:50 PM 64.4 °F 57.2 °F 77% 30.01 in 6.2 mi NE 16.1 mph - N/A   Scattered Clouds
2:20 PM 66.2 °F 57.2 °F 73% 30.01 in 6.2 mi ENE 18.4 mph - N/A   Scattered Clouds
2:50 PM 66.2 °F 57.2 °F 73% 30.01 in 6.2 mi ENE 15.0 mph - N/A   Scattered Clouds
3:20 PM 64.4 °F 57.2 °F 77% 29.98 in 6.2 mi ENE 17.3 mph - N/A   Scattered Clouds
3:50 PM 66.2 °F 57.2 °F 73% 29.98 in 6.2 mi ENE 19.6 mph - N/A   Partly Cloudy
4:20 PM 68.0 °F 57.2 °F 68% 29.98 in 6.2 mi ENE 21.9 mph - N/A   Partly Cloudy
4:50 PM 66.2 °F 57.2 °F 73% 29.98 in 6.2 mi ENE 16.1 mph - N/A   Scattered Clouds
5:20 PM 60.8 °F 57.2 °F 88% 29.98 in 6.2 mi ENE 16.1 mph - N/A Rain Rain
5:50 PM 59.0 °F 57.2 °F 94% 29.98 in 6.2 mi ENE 18.4 mph - N/A Rain Light Rain
6:20 PM 60.8 °F 57.2 °F 88% 29.98 in 6.2 mi NE 13.8 mph - N/A   Scattered Clouds
6:50 PM 60.8 °F 57.2 °F 88% 29.98 in 6.2 mi ENE 18.4 mph - N/A   Scattered Clouds
7:20 PM 60.8 °F 57.2 °F 88% 29.98 in 6.2 mi ENE 16.1 mph - N/A   Scattered Clouds
7:50 PM 60.8 °F 57.2 °F 88% 29.98 in 6.2 mi ENE 16.1 mph - N/A   Mostly Cloudy
8:20 PM 59.0 °F 57.2 °F 94% 29.95 in 6.2 mi ENE 18.4 mph - N/A   Mostly Cloudy
8:50 PM 59.0 °F 57.2 °F 94% 29.95 in 6.2 mi ENE 15.0 mph - N/A   Scattered Clouds
9:20 PM 59.0 °F 57.2 °F 94% 29.95 in 5.6 mi ENE 16.1 mph - N/A   Mostly Cloudy
9:50 PM 59.0 °F 57.2 °F 94% 29.95 in 5.6 mi ENE 13.8 mph - N/A   Mostly Cloudy
10:20 PM 59.0 °F 57.2 °F 94% 29.95 in 6.2 mi ENE 15.0 mph - N/A   Overcast
10:50 PM 59.0 °F 57.2 °F 94% 29.95 in 6.2 mi ENE 15.0 mph - N/A   Overcast
11:20 PM 59.0 °F 57.2 °F 94% 29.95 in 6.2 mi ENE 15.0 mph - N/A   Overcast
11:50 PM 59.0 °F 57.2 °F 94% 29.95 in 6.2 mi ENE 12.7 mph - N/A   Overcast